Location: Stockholm
(59.3330°N, 18.0500°E)
Time: 14:09:12
(UTC+01:00)

Envisat - Pass Details

Date: 30 November 2022
Orbit: 763 x 765 km, 98.2° (Epoch: 29 January)

Event Time Altitude Azimuth Distance (km) Brightness Sun altitude
Rises 05:27:28 0° 15° (NNE) 3,250 6.3 -19.6°
Reaches altitude 10° 05:29:53 10° 9° (N) 2,320 5.5 -19.3°
Maximum altitude 05:34:39 41° 300° (WNW) 1,102 3.3 -18.7°
Enters shadow 05:36:19 32° 258° (WSW) 1,311 3.7 -18.5°
